Lid_Strength_Index
5 4 4 4 4 4 3 3 3 3 3 3 3 2 2 3 3 10 12 11 8 4 5 10 10 11 10 11 9 9 12 14 13 13 12 15 15 16 16 16 17 17 17 16 14
5 5 4 4 4 4 3 3 4 4 3 3 3 2 3 3 7 12 8 6 5 5 11 12 11 11 12 12 11 11 12 12 11 13 15 15 15 15 15 16 17 17 16 15 15
5 5 5 5 4 4 4 4 4 4 4 4 3 2 2 4 10 11 7 5 5 6 10 11 12 11 13 12 12 11 12 12 13 13 14 14 15 16 15 16 15 16 17 16 16
5 5 5 5 5 4 4 4 4 4 5 5 4 3 3 7 15 12 6 6 6 10 11 12 12 13 14 13 13 13 15 14 14 13 14 14 14 15 15 16 16 15 16 16 16
5 5 5 5 5 4 4 4 4 4 5 5 4 3 7 12 11 12 8 10 11 11 12 12 12 13 14 14 14 14 15 15 15 15 16 14 16 15 16 17 17 16 16 17 17
5 5 5 5 5 4 4 4 4 4 5 5 4 4 11 15 13 12 12 12 12 12 12 12 12 12 14 15 15 16 15 16 16 16 16 14 16 16 17 17 17 17 17 17 17
5 5 5 5 5 5 4 4 4 5 5 5 4 6 13 13 14 13 13 13 12 13 12 12 11 12 13 15 15 15 17 17 17 17 17 16 16 16 17 17 18 17 18 17 17
5 5 5 5 5 5 5 4 4 5 6 7 5 13 15 13 13 13 13 13 12 12 12 11 11 12 13 14 15 16 17 19 18 17 17 17 18 17 17 17 17 18 18 17 16
5 5 5 5 5 5 5 4 5 5 5 7 13 15 16 11 14 14 14 14 13 12 12 10 12 14 14 16 17 18 19 19 18 17 18 18 18 17 18 18 18 19 18 17 17
5 5 5 5 5 4 4 5 6 9 10 11 13 16 15 16 14 14 14 13 13 12 12 13 15 17 17 17 19 19 19 19 19 19 19 20 19 19 18 18 17 18 18 18 17
5 5 5 5 5 4 9 13 14 15 14 17 17 17 16 15 14 14 14 14 13 13 17 16 18 19 17 17 19 18 20 20 20 20 20 20 20 19 19 18 18 17 18 18 17
5 5 5 5 5 4 11 14 15 16 18 17 17 17 16 16 17 15 13 15 15 17 17 18 19 17 16 17 18 18 20 21 20 19 20 22 21 20 20 19 17 16 17 17 17
5 5 5 5 5 10 13 13 12 14 18 18 17 17 17 15 17 16 15 15 16 17 17 19 20 18 18 18 18 19 19 21 19 20 22 23 22 21 19 19 18 16 16 17 16
6 6 5 6 9 13 14 11 11 13 21 18 19 17 16 15 18 15 15 16 18 18 18 20 19 18 18 18 17 19 19 19 20 20 22 22 25 23 20 19 18 17 17 16 17
6 6 6 5 13 13 12 11 11 13 27 18 19 15 16 17 18 17 15 16 18 19 19 20 21 19 19 19 18 19 18 18 19 21 23 25 25 22 21 20 18 18 17 16 16
6 6 6 8 12 12 10 11 12 20 27 21 19 19 18 18 18 18 17 16 17 19 20 21 20 20 20 18 18 18 18 18 19 21 27 24 23 23 21 18 19 18 17 16 16
5 7 8 9 13 11 11 13 20 26 19 21 21 19 19 19 19 19 19 20 20 22 22 21 21 21 19 20 19 19 19 22 25 27 26 24 24 21 19 18 17 17 17 16 16
6 8 9 10 11 11 12 17 28 24 23 19 19 19 20 19 20 20 21 22 20 20 22 22 23 20 19 20 20 19 20 22 26 27 24 22 25 20 18 18 17 17 16 17 17
6 11 12 11 10 11 15 27 23 22 19 20 20 21 22 20 20 21 22 23 20 19 19 24 23 20 19 19 19 20 22 19 24 28 27 23 21 18 18 18 18 17 17 17 17
11 12 13 10 10 12 19 20 22 17 18 19 20 20 25 24 22 22 22 21 19 18 18 20 25 21 20 19 20 20 19 21 23 27 28 24 25 21 19 18 17 18 17 17 17
12 15 12 10 11 17 23 24 20 17 17 18 19 21 21 22 22 24 22 20 20 19 17 22 21 24 21 23 21 22 23 22 21 23 26 28 23 19 16 16 16 16 16 17 17
12 18 13 10 17 28 25 21 16 17 17 17 18 18 20 21 22 26 24 20 19 18 19 18 24 29 25 23 21 23 22 21 24 26 26 25 24 18 17 17 16 17 16 17 16
13 14 12 12 23 27 23 20 17 18 18 17 18 17 17 19 21 22 22 20 18 18 19 20 25 30 26 25 23 26 21 20 22 22 26 25 22 18 18 18 17 16 17 16 16
13 17 15 14 17 19 22 21 20 17 17 16 17 18 19 20 19 20 20 19 18 18 15 17 28 25 24 22 24 28 24 20 22 28 25 22 22 19 17 18 17 17 16 17 16
12 14 14 19 19 18 17 18 18 19 17 16 18 18 18 20 21 21 20 20 19 17 17 20 27 31 29 24 25 27 28 22 22 19 21 19 19 17 16 16 17 17 17 17 17
12 13 15 17 17 16 15 18 17 17 17 20 19 16 17 18 17 19 18 19 18 20 20 24 28 31 29 23 22 25 25 23 20 21 21 21 21 17 16 17 18 17 17 16 16
9 10 11 13 16 17 18 15 14 13 14 13 16 16 18 17 15 16 16 16 17 19 20 24 28 29 29 25 24 24 23 25 22 24 19 21 17 17 17 16 16 17 16 16 16